Time,TemperatureF,DewpointF,PressureIn,WindDirection,WindDirectionDegrees,WindSpeedMPH,WindSpeedGustMPH,Humidity,HourlyPrecipIn,Conditions,Clouds,dailyrainin,SoftwareType,DateUTC
2013-03-18 00:00:00,79.9,77.7,29.90,ESE,119,7.0,13.0,93,0.00,,,0.00,WeatherDisplay:10.37,2013-03-18 06:00:00,
2013-03-18 00:15:00,79.9,78.0,29.89,ESE,120,7.0,12.0,94,0.00,,,0.00,WeatherDisplay:10.37,2013-03-18 06:15:00,
2013-03-18 00:30:00,79.9,78.0,29.89,ESE,119,8.0,10.0,94,0.00,,,0.00,WeatherDisplay:10.37,2013-03-18 06:30:00,
2013-03-18 00:45:00,79.9,78.0,29.88,ESE,122,7.0,12.0,94,0.00,,,0.00,WeatherDisplay:10.37,2013-03-18 06:45:00,
2013-03-18 01:00:00,79.8,77.6,29.88,ESE,119,7.0,10.0,93,0.00,,,0.00,WeatherDisplay:10.37,2013-03-18 07:00:00,
2013-03-18 01:16:00,79.8,77.9,29.87,ESE,119,7.0,10.0,94,0.00,,,0.00,WeatherDisplay:10.37,2013-03-18 07:16:00,
2013-03-18 01:30:00,79.8,77.9,29.87,ESE,119,6.0,13.0,94,0.00,,,0.00,WeatherDisplay:10.37,2013-03-18 07:30:00,
2013-03-18 01:45:00,79.7,77.8,29.87,ESE,120,9.0,12.0,94,0.00,,,0.00,WeatherDisplay:10.37,2013-03-18 07:45:00,
2013-03-18 02:00:00,79.8,77.9,29.86,ESE,120,9.0,14.0,94,0.00,,,0.00,WeatherDisplay:10.37,2013-03-18 08:00:00,
2013-03-18 02:15:00,79.7,77.9,29.86,ESE,122,6.0,12.0,94,0.00,,,0.00,WeatherDisplay:10.37,2013-03-18 08:15:00,
2013-03-18 02:30:00,79.7,77.8,29.86,ESE,121,7.0,12.0,94,0.00,,,0.00,WeatherDisplay:10.37,2013-03-18 08:30:00,
2013-03-18 02:45:00,79.7,77.8,29.86,ESE,116,7.0,12.0,94,0.00,,,0.00,WeatherDisplay:10.37,2013-03-18 08:45:00,
2013-03-18 03:00:00,79.6,77.7,29.86,ESE,118,6.0,10.0,94,0.00,,,0.00,WeatherDisplay:10.37,2013-03-18 09:00:00,
2013-03-18 03:15:00,79.6,77.7,29.86,ESE,116,6.0,12.0,94,0.00,,,0.00,WeatherDisplay:10.37,2013-03-18 09:15:00,
2013-03-18 03:30:00,79.6,77.7,29.86,ESE,116,6.0,12.0,94,0.00,,,0.00,WeatherDisplay:10.37,2013-03-18 09:30:00,
2013-03-18 03:45:00,79.6,77.7,29.86,ESE,115,6.0,10.0,94,0.00,,,0.00,WeatherDisplay:10.37,2013-03-18 09:45:00,
2013-03-18 04:00:00,79.6,77.7,29.86,ESE,117,7.0,10.0,94,0.00,,,0.00,WeatherDisplay:10.37,2013-03-18 10:00:00,
2013-03-18 04:15:00,79.6,77.7,29.85,ESE,118,8.0,12.0,94,0.00,,,0.00,WeatherDisplay:10.37,2013-03-18 10:15:00,
2013-03-18 04:30:00,79.5,77.6,29.86,ESE,119,8.0,10.0,94,0.00,,,0.00,WeatherDisplay:10.37,2013-03-18 10:30:00,
2013-03-18 04:45:00,79.5,77.6,29.86,ESE,114,8.0,12.0,94,0.00,,,0.00,WeatherDisplay:10.37,2013-03-18 10:45:00,
2013-03-18 05:00:00,79.5,77.6,29.86,ESE,114,7.0,12.0,94,0.00,,,0.00,WeatherDisplay:10.37,2013-03-18 11:00:00,
2013-03-18 05:15:00,79.6,77.7,29.87,ESE,117,7.0,12.0,94,0.00,,,0.00,WeatherDisplay:10.37,2013-03-18 11:15:00,
2013-03-18 05:30:00,79.5,77.6,29.88,ESE,118,7.0,12.0,94,0.00,,,0.00,WeatherDisplay:10.37,2013-03-18 11:30:00,
2013-03-18 05:45:00,79.5,77.6,29.88,ESE,117,12.0,16.0,94,0.00,,,0.00,WeatherDisplay:10.37,2013-03-18 11:45:00,
2013-03-18 06:00:00,79.6,77.7,29.88,ESE,119,12.0,16.0,94,0.00,,,0.00,WeatherDisplay:10.37,2013-03-18 12:00:00,
2013-03-18 06:15:00,79.6,77.7,29.88,ESE,120,12.0,17.0,94,0.00,,,0.00,WeatherDisplay:10.37,2013-03-18 12:15:00,
2013-03-18 06:30:00,79.8,77.9,29.89,ESE,120,10.0,14.0,94,0.00,,,0.00,WeatherDisplay:10.37,2013-03-18 12:30:00,
2013-03-18 06:45:00,80.3,78.1,29.89,ESE,121,13.0,17.0,93,0.00,,,0.00,WeatherDisplay:10.37,2013-03-18 12:45:00,
2013-03-18 07:00:00,81.0,78.7,29.90,ESE,122,13.0,17.0,93,0.00,,,0.00,WeatherDisplay:10.37,2013-03-18 13:00:00,
2013-03-18 07:15:00,81.4,78.5,29.90,ESE,121,13.0,20.0,91,0.00,,,0.00,WeatherDisplay:10.37,2013-03-18 13:15:00,
2013-03-18 07:30:00,81.7,78.1,29.91,ESE,121,13.0,17.0,89,0.00,,,0.00,WeatherDisplay:10.37,2013-03-18 13:30:00,
2013-03-18 07:45:00,82.1,78.2,29.91,ESE,121,12.0,18.0,88,0.00,,,0.00,WeatherDisplay:10.37,2013-03-18 13:45:00,
2013-03-18 08:00:00,82.4,78.1,29.92,ESE,122,12.0,17.0,87,0.00,,,0.00,WeatherDisplay:10.37,2013-03-18 14:00:00,
2013-03-18 08:15:00,82.7,78.0,29.92,ESE,121,12.0,18.0,86,0.00,,,0.00,WeatherDisplay:10.37,2013-03-18 14:15:00,
2013-03-18 08:30:00,82.9,77.9,29.93,ESE,121,13.0,18.0,85,0.00,,,0.00,WeatherDisplay:10.37,2013-03-18 14:30:00,
2013-03-18 08:45:00,83.0,77.6,29.93,ESE,120,14.0,18.0,84,0.00,CLR,,0.00,WeatherDisplay:10.37,2013-03-18 14:45:00,
2013-03-18 09:00:00,83.2,77.5,29.93,ESE,120,15.0,20.0,83,0.00,CLR,,0.00,WeatherDisplay:10.37,2013-03-18 15:00:00,
2013-03-18 09:15:00,83.1,77.0,29.92,ESE,119,15.0,20.0,82,0.00,CLR,,0.00,WeatherDisplay:10.37,2013-03-18 15:15:00,
2013-03-18 09:30:00,82.9,76.5,29.92,ESE,121,16.0,23.0,81,0.00,CLR,,0.00,WeatherDisplay:10.37,2013-03-18 15:30:00,
2013-03-18 09:45:00,83.0,76.6,29.93,ESE,120,16.0,23.0,81,0.00,CLR,,0.00,WeatherDisplay:10.37,2013-03-18 15:45:00,
2013-03-18 10:00:00,83.2,77.1,29.92,ESE,120,14.0,22.0,82,0.00,CLR,,0.00,WeatherDisplay:10.37,2013-03-18 16:00:00,
2013-03-18 10:15:00,83.3,76.9,29.92,ESE,119,14.0,22.0,81,0.00,CLR,,0.00,WeatherDisplay:10.37,2013-03-18 16:15:00,
2013-03-18 10:30:00,83.1,76.7,29.92,ESE,119,14.0,21.0,81,0.00,CLR,,0.00,WeatherDisplay:10.37,2013-03-18 16:30:00,
2013-03-18 10:45:00,83.0,76.6,29.92,ESE,118,15.0,21.0,81,0.00,CLR,,0.00,WeatherDisplay:10.37,2013-03-18 16:45:00,
2013-03-18 11:00:00,82.9,76.5,29.91,ESE,118,15.0,21.0,81,0.00,CLR,,0.00,WeatherDisplay:10.37,2013-03-18 17:00:00,
2013-03-18 11:15:00,82.7,75.9,29.91,ESE,118,16.0,23.0,80,0.00,CLR,,0.00,WeatherDisplay:10.37,2013-03-18 17:15:00,
2013-03-18 11:30:00,82.8,76.8,29.91,ESE,118,14.0,21.0,82,0.00,CLR,,0.00,WeatherDisplay:10.37,2013-03-18 17:30:00,
2013-03-18 11:45:00,82.8,76.7,29.90,ESE,117,16.0,21.0,82,0.00,CLR,,0.00,WeatherDisplay:10.37,2013-03-18 17:45:00,
2013-03-18 12:00:00,82.6,76.5,29.89,ESE,118,15.0,21.0,82,0.00,CLR,,0.00,WeatherDisplay:10.37,2013-03-18 18:00:00,
2013-03-18 12:15:00,82.6,76.5,29.88,ESE,119,14.0,20.0,82,0.00,CLR,,0.00,WeatherDisplay:10.37,2013-03-18 18:15:00,
2013-03-18 12:30:00,82.6,76.5,29.88,ESE,118,15.0,21.0,82,0.00,CLR,,0.00,WeatherDisplay:10.37,2013-03-18 18:30:00,
2013-03-18 12:45:00,82.7,77.0,29.87,ESE,118,14.0,21.0,83,0.00,CLR,,0.00,WeatherDisplay:10.37,2013-03-18 18:45:00,
2013-03-18 13:00:00,82.5,76.4,29.86,ESE,119,16.0,23.0,82,0.00,CLR,,0.00,WeatherDisplay:10.37,2013-03-18 19:00:00,
2013-03-18 13:15:00,82.4,76.4,29.86,ESE,120,15.0,21.0,82,0.00,CLR,,0.00,WeatherDisplay:10.37,2013-03-18 19:15:00,
2013-03-18 13:30:00,82.4,76.3,29.85,ESE,120,15.0,21.0,82,0.00,CLR,,0.00,WeatherDisplay:10.37,2013-03-18 19:30:00,
2013-03-18 13:45:00,82.3,76.3,29.84,ESE,121,15.0,22.0,82,0.00,CLR,,0.00,WeatherDisplay:10.37,2013-03-18 19:45:00,
2013-03-18 14:00:00,82.5,76.8,29.84,ESE,118,14.0,21.0,83,0.00,CLR,,0.00,WeatherDisplay:10.37,2013-03-18 20:00:00,
2013-03-18 14:15:00,82.4,76.3,29.83,ESE,117,15.0,21.0,82,0.00,CLR,,0.00,WeatherDisplay:10.37,2013-03-18 20:15:00,
2013-03-18 14:30:00,82.5,76.4,29.83,ESE,117,13.0,20.0,82,0.00,CLR,,0.00,WeatherDisplay:10.37,2013-03-18 20:30:00,
2013-03-18 14:45:00,82.4,76.3,29.83,ESE,116,15.0,20.0,82,0.00,CLR,,0.00,WeatherDisplay:10.37,2013-03-18 20:45:00,
2013-03-18 15:00:00,82.4,76.3,29.82,ESE,115,14.0,20.0,82,0.00,CLR,,0.00,WeatherDisplay:10.37,2013-03-18 21:00:00,
2013-03-18 15:15:00,82.4,76.4,29.82,ESE,114,14.0,20.0,82,0.00,CLR,,0.00,WeatherDisplay:10.37,2013-03-18 21:15:00,
2013-03-18 15:30:00,82.4,76.4,29.83,ESE,115,12.0,18.0,82,0.00,CLR,,0.00,WeatherDisplay:10.37,2013-03-18 21:30:00,
2013-03-18 16:00:00,82.1,76.0,29.83,ESE,114,14.0,18.0,82,0.00,CLR,,0.00,WeatherDisplay:10.37,2013-03-18 22:00:00,
2013-03-18 16:15:00,81.9,75.9,29.82,ESE,115,13.0,18.0,82,0.00,CLR,,0.00,WeatherDisplay:10.37,2013-03-18 22:15:00,
2013-03-18 16:26:00,81.8,75.8,29.83,ESE,116,13.0,18.0,82,0.00,CLR,,0.00,WeatherDisplay:10.37,2013-03-18 22:26:00,
2013-03-18 16:45:00,81.6,75.6,29.82,ESE,114,15.0,20.0,82,0.00,CLR,,0.00,WeatherDisplay:10.37,2013-03-18 22:45:00,
2013-03-18 17:00:00,81.6,75.9,29.82,ESE,112,13.0,20.0,83,0.00,CLR,,0.00,WeatherDisplay:10.37,2013-03-18 23:00:00,
2013-03-18 17:15:00,81.4,76.1,29.81,ESE,114,15.0,20.0,84,0.00,CLR,,0.00,WeatherDisplay:10.37,2013-03-18 23:15:00,
2013-03-18 17:30:00,81.1,76.2,29.81,ESE,111,16.0,21.0,85,0.00,CLR,,0.00,WeatherDisplay:10.37,2013-03-18 23:30:00,
2013-03-18 18:00:00,80.7,76.1,29.82,ESE,112,14.0,23.0,86,0.00,,,0.00,WeatherDisplay:10.37,2013-03-19 00:00:00,
2013-03-18 18:15:00,80.6,76.4,29.83,ESE,113,14.0,20.0,87,0.00,,,0.00,WeatherDisplay:10.37,2013-03-19 00:15:00,
2013-03-18 18:30:00,80.6,76.7,29.83,ESE,111,14.0,20.0,88,0.00,,,0.00,WeatherDisplay:10.37,2013-03-19 00:30:00,
2013-03-18 18:45:00,80.5,76.6,29.83,ESE,111,16.0,21.0,88,0.00,,,0.00,WeatherDisplay:10.37,2013-03-19 00:45:00,
2013-03-18 19:00:00,80.5,76.6,29.84,ESE,113,15.0,21.0,88,0.00,,,0.00,WeatherDisplay:10.37,2013-03-19 01:00:00,
2013-03-18 19:15:00,80.5,77.0,29.84,ESE,113,15.0,20.0,89,0.00,,,0.00,WeatherDisplay:10.37,2013-03-19 01:15:00,
2013-03-18 19:30:00,80.4,76.9,29.85,ESE,113,16.0,21.0,89,0.00,,,0.00,WeatherDisplay:10.37,2013-03-19 01:30:00,
2013-03-18 19:45:00,80.4,77.2,29.85,ESE,112,14.0,20.0,90,0.00,,,0.00,WeatherDisplay:10.37,2013-03-19 01:45:00,
2013-03-18 20:00:00,80.3,77.1,29.85,ESE,115,15.0,22.0,90,0.00,,,0.00,WeatherDisplay:10.37,2013-03-19 02:00:00,
2013-03-18 20:15:00,80.3,77.1,29.86,ESE,115,14.0,20.0,90,0.00,,,0.00,WeatherDisplay:10.37,2013-03-19 02:15:00,
2013-03-18 20:30:00,80.3,77.1,29.86,ESE,116,14.0,18.0,90,0.00,,,0.00,WeatherDisplay:10.37,2013-03-19 02:30:00,
2013-03-18 20:45:00,80.3,77.1,29.87,ESE,116,13.0,20.0,90,0.00,,,0.00,WeatherDisplay:10.37,2013-03-19 02:45:00,
2013-03-18 21:00:00,80.3,77.1,29.87,ESE,114,12.0,20.0,90,0.00,,,0.00,WeatherDisplay:10.37,2013-03-19 03:00:00,
2013-03-18 21:15:00,80.3,77.1,29.88,ESE,115,10.0,16.0,90,0.00,,,0.00,WeatherDisplay:10.37,2013-03-19 03:15:00,
2013-03-18 21:30:00,80.2,77.0,29.88,ESE,115,13.0,16.0,90,0.00,,,0.00,WeatherDisplay:10.37,2013-03-19 03:30:00,
2013-03-18 21:45:00,80.2,77.0,29.89,ESE,114,8.0,14.0,90,0.00,,,0.00,WeatherDisplay:10.37,2013-03-19 03:45:00,
2013-03-18 22:00:00,80.2,77.0,29.89,ESE,114,8.0,14.0,90,0.00,,,0.00,WeatherDisplay:10.37,2013-03-19 04:00:00,
2013-03-18 22:15:00,80.1,76.9,29.89,ESE,114,10.0,14.0,90,0.00,,,0.00,WeatherDisplay:10.37,2013-03-19 04:15:00,
2013-03-18 22:30:00,80.0,76.8,29.89,ESE,113,10.0,14.0,90,0.00,,,0.00,WeatherDisplay:10.37,2013-03-19 04:30:00,
2013-03-18 22:45:00,80.1,77.2,29.89,ESE,114,9.0,14.0,91,0.00,,,0.00,WeatherDisplay:10.37,2013-03-19 04:45:00,
2013-03-18 23:00:00,79.9,77.0,29.89,ESE,113,10.0,14.0,91,0.00,,,0.00,WeatherDisplay:10.37,2013-03-19 05:00:00,
2013-03-18 23:15:00,79.9,77.0,29.88,ESE,113,9.0,14.0,91,0.00,,,0.00,WeatherDisplay:10.37,2013-03-19 05:15:00,
2013-03-18 23:30:00,79.8,76.9,29.88,ESE,111,10.0,13.0,91,0.00,,,0.00,WeatherDisplay:10.37,2013-03-19 05:30:00,
2013-03-18 23:45:00,79.8,76.9,29.88,ESE,111,9.0,12.0,91,0.00,,,0.00,WeatherDisplay:10.37,2013-03-19 05:45:00,